TimeEDT,TemperatureF,Dew PointF,Humidity,Sea Level PressureIn,VisibilityMPH,Wind Direction,Wind SpeedMPH,Gust SpeedMPH,PrecipitationIn,Events,Conditions,WindDirDegrees,DateUTC
12:15 AM,69.8,69.8,100,29.86,10.0,SW,3.5,-,N/A,,Clear,230,2013-10-23 04:15:00
12:35 AM,69.8,69.8,100,29.85,10.0,WSW,3.5,-,N/A,,Clear,240,2013-10-23 04:35:00
12:55 AM,69.8,69.8,100,29.85,10.0,Calm,Calm,-,N/A,,Clear,0,2013-10-23 04:55:00
1:15 AM,69.8,69.8,100,29.86,10.0,SW,3.5,-,N/A,,Clear,230,2013-10-23 05:15:00
1:35 AM,69.8,69.8,100,29.86,10.0,SW,3.5,-,N/A,,Clear,230,2013-10-23 05:35:00
1:55 AM,69.8,69.8,100,29.86,10.0,SW,4.6,-,N/A,,Clear,230,2013-10-23 05:55:00
2:15 AM,69.8,69.8,100,29.86,10.0,SW,4.6,-,N/A,,Clear,230,2013-10-23 06:15:00
2:35 AM,69.8,69.8,100,29.85,10.0,SW,3.5,-,N/A,,Clear,220,2013-10-23 06:35:00
2:55 AM,69.8,69.8,100,29.85,10.0,SW,3.5,-,N/A,,Clear,220,2013-10-23 06:55:00
3:15 AM,69.8,69.8,100,29.84,10.0,SW,3.5,-,N/A,,Clear,230,2013-10-23 07:15:00
3:35 AM,69.8,69.8,100,29.84,10.0,SW,3.5,-,N/A,,Clear,230,2013-10-23 07:35:00
3:55 AM,69.8,69.8,100,29.84,10.0,WSW,3.5,-,N/A,,Scattered Clouds,250,2013-10-23 07:55:00
4:15 AM,69.8,69.8,100,29.84,10.0,West,4.6,-,N/A,,Overcast,270,2013-10-23 08:15:00
4:35 AM,69.8,69.8,100,29.84,7.0,NW,8.1,-,N/A,,Overcast,320,2013-10-23 08:35:00
4:55 AM,69.8,69.8,100,29.85,4.0,NNW,4.6,-,0.01,,Drizzle,330,2013-10-23 08:55:00
5:15 AM,69.8,69.8,100,29.86,7.0,NNW,4.6,-,N/A,,Overcast,340,2013-10-23 09:15:00
5:35 AM,69.8,69.8,100,29.86,10.0,NNW,3.5,-,N/A,,Overcast,340,2013-10-23 09:35:00
5:55 AM,69.8,69.8,100,29.87,10.0,NNW,3.5,-,N/A,,Overcast,340,2013-10-23 09:55:00
6:15 AM,69.8,69.8,100,29.87,10.0,NW,3.5,-,N/A,,Scattered Clouds,320,2013-10-23 10:15:00
6:35 AM,69.8,69.8,100,29.88,10.0,NNW,3.5,-,N/A,,Scattered Clouds,330,2013-10-23 10:35:00
6:55 AM,69.8,69.8,100,29.89,10.0,Calm,Calm,-,N/A,,Mostly Cloudy,0,2013-10-23 10:55:00
7:15 AM,69.8,69.8,100,29.89,10.0,NNW,3.5,-,N/A,,Overcast,330,2013-10-23 11:15:00
7:35 AM,69.8,69.8,100,29.89,10.0,NNW,4.6,-,N/A,,Overcast,330,2013-10-23 11:35:00
7:55 AM,69.8,69.8,100,29.89,10.0,NW,8.1,-,N/A,,Mostly Cloudy,320,2013-10-23 11:55:00
8:15 AM,69.8,69.8,100,29.91,10.0,NNW,5.8,-,N/A,,Scattered Clouds,330,2013-10-23 12:15:00
8:35 AM,69.8,69.8,100,29.92,10.0,NNW,5.8,-,N/A,,Scattered Clouds,330,2013-10-23 12:35:00
8:55 AM,69.8,69.8,100,29.93,10.0,NNW,6.9,-,N/A,,Scattered Clouds,330,2013-10-23 12:55:00
9:15 AM,69.8,69.8,100,29.94,10.0,NNW,5.8,-,N/A,,Scattered Clouds,340,2013-10-23 13:15:00
9:35 AM,69.8,69.8,100,29.95,10.0,NNW,13.8,19.6,N/A,,Mostly Cloudy,340,2013-10-23 13:35:00
9:55 AM,69.8,69.8,100,29.95,10.0,North,9.2,-,N/A,,Mostly Cloudy,350,2013-10-23 13:55:00
10:15 AM,69.8,69.8,100,29.96,10.0,NNW,6.9,-,N/A,,Overcast,340,2013-10-23 14:15:00
10:35 AM,69.8,69.8,100,29.96,10.0,NNW,8.1,-,N/A,,Overcast,340,2013-10-23 14:35:00
10:55 AM,71.6,68.0,88,29.96,10.0,North,11.5,16.1,N/A,,Overcast,350,2013-10-23 14:55:00
11:15 AM,71.6,69.8,94,29.96,10.0,North,8.1,-,N/A,,Overcast,350,2013-10-23 15:15:00
11:35 AM,73.4,68.0,83,29.95,10.0,North,8.1,-,N/A,,Overcast,350,2013-10-23 15:35:00
11:55 AM,73.4,64.4,73,29.95,10.0,NNW,8.1,17.3,N/A,,Overcast,330,2013-10-23 15:55:00
12:15 PM,75.2,64.4,69,29.95,10.0,NNW,8.1,-,N/A,,Overcast,330,2013-10-23 16:15:00
12:35 PM,75.2,62.6,65,29.94,10.0,North,6.9,-,N/A,,Mostly Cloudy,360,2013-10-23 16:35:00
12:55 PM,78.8,59.0,51,29.94,10.0,North,6.9,-,N/A,,Scattered Clouds,350,2013-10-23 16:55:00
1:15 PM,78.8,55.4,44,29.94,10.0,NNW,9.2,18.4,N/A,,Clear,330,2013-10-23 17:15:00
1:35 PM,78.8,53.6,42,29.93,10.0,North,12.7,18.4,N/A,,Clear,350,2013-10-23 17:35:00
1:55 PM,78.8,53.6,42,29.92,10.0,NNW,11.5,-,N/A,,Clear,340,2013-10-23 17:55:00
2:15 PM,78.8,51.8,39,29.92,10.0,NNW,9.2,-,N/A,,Clear,340,2013-10-23 18:15:00
2:35 PM,78.8,51.8,39,29.91,10.0,NW,8.1,-,N/A,,Clear,320,2013-10-23 18:35:00
2:55 PM,80.6,50.0,34,29.91,10.0,NNW,8.1,-,N/A,,Clear,330,2013-10-23 18:55:00
3:15 PM,80.6,48.2,32,29.90,10.0,WNW,12.7,-,N/A,,Clear,300,2013-10-23 19:15:00
3:35 PM,78.8,48.2,34,29.90,10.0,NW,10.4,-,N/A,,Clear,310,2013-10-23 19:35:00
3:55 PM,78.8,44.6,30,29.91,10.0,NW,10.4,18.4,N/A,,Clear,310,2013-10-23 19:55:00
4:15 PM,78.8,41.0,26,29.92,10.0,WNW,15.0,18.4,N/A,,Clear,290,2013-10-23 20:15:00
4:35 PM,77.0,41.0,28,29.92,10.0,WNW,11.5,-,N/A,,Clear,300,2013-10-23 20:35:00
4:55 PM,75.2,44.6,34,29.92,10.0,NW,10.4,17.3,N/A,,Clear,310,2013-10-23 20:55:00
5:15 PM,73.4,46.4,38,29.92,10.0,WNW,9.2,-,N/A,,Clear,300,2013-10-23 21:15:00
5:35 PM,73.4,50.0,44,29.93,10.0,WNW,8.1,-,N/A,,Clear,300,2013-10-23 21:35:00
5:55 PM,73.4,50.0,44,29.94,10.0,NW,9.2,-,N/A,,Clear,310,2013-10-23 21:55:00
6:15 PM,71.6,50.0,46,29.94,10.0,NW,9.2,-,N/A,,Clear,310,2013-10-23 22:15:00
6:35 PM,71.6,50.0,46,29.95,10.0,NW,5.8,-,N/A,,Clear,310,2013-10-23 22:35:00
6:55 PM,69.8,51.8,53,29.95,10.0,NW,4.6,-,N/A,,Clear,310,2013-10-23 22:55:00
7:15 PM,68.0,51.8,56,29.95,10.0,NW,4.6,-,N/A,,Clear,310,2013-10-23 23:15:00
7:35 PM,66.2,53.6,64,29.96,10.0,NW,3.5,-,N/A,,Clear,320,2013-10-23 23:35:00
7:55 PM,66.2,53.6,64,29.97,10.0,Calm,Calm,-,N/A,,Clear,0,2013-10-23 23:55:00
8:15 PM,64.4,53.6,68,29.97,10.0,Calm,Calm,-,N/A,,Clear,0,2013-10-24 00:15:00
8:35 PM,62.6,55.4,77,29.98,10.0,WNW,3.5,-,N/A,,Clear,300,2013-10-24 00:35:00
8:55 PM,62.6,57.2,82,29.99,10.0,Calm,Calm,-,N/A,,Clear,0,2013-10-24 00:55:00
9:15 PM,60.8,57.2,88,29.99,10.0,NNW,3.5,-,N/A,,Clear,340,2013-10-24 01:15:00
9:35 PM,62.6,55.4,77,30.00,10.0,NW,3.5,-,N/A,,Clear,310,2013-10-24 01:35:00
9:55 PM,62.6,55.4,77,30.01,10.0,Calm,Calm,-,N/A,,Clear,0,2013-10-24 01:55:00
10:15 PM,60.8,55.4,82,30.02,10.0,NNW,4.6,-,N/A,,Clear,330,2013-10-24 02:15:00
10:35 PM,62.6,57.2,82,30.02,10.0,North,5.8,-,N/A,,Clear,350,2013-10-24 02:35:00
10:55 PM,60.8,57.2,88,30.03,10.0,North,4.6,-,N/A,,Clear,350,2013-10-24 02:55:00
11:15 PM,62.6,57.2,82,30.05,10.0,NNW,5.8,-,N/A,,Clear,340,2013-10-24 03:15:00
11:35 PM,62.6,55.4,77,30.05,10.0,NNW,3.5,-,N/A,,Clear,340,2013-10-24 03:35:00
11:55 PM,62.6,55.4,77,30.05,10.0,North,4.6,-,N/A,,Clear,350,2013-10-24 03:55:00